Temp
24 24 23 23 23 23 23 23 23 22 22 22 22 22 22 22 22 22 22 21 21 20 20 21 21 21 21 20 20 19 18 18
24 23 23 23 22 22 22 23 22 22 22 22 21 21 21 20 21 21 21 21 21 21 21 20 20 21 21 20 20 19 19 18
21 21 21 21 22 22 22 22 22 22 22 22 21 20 20 20 20 20 20 20 20 20 20 20 20 20 20 20 20 19 18 18
19 20 20 20 20 21 21 21 21 22 22 21 21 20 20 20 19 19 19 19 19 20 19 19 19 19 20 20 19 19 19 18
18 18 19 19 19 20 20 20 19 20 20 20 20 20 19 19 18 19 18 19 19 19 19 19 19 19 19 20 20 19 19 19
18 19 19 19 18 18 18 18 19 18 18 18 18 18 18 18 18 18 18 19 19 19 19 19 19 19 19 19 20 20 20 19
17 18 17 17 16 15 16 16 17 17 17 17 18 18 18 18 18 18 18 18 18 18 18 18 18 18 18 18 19 20 20 20
17 17 17 17 17 16 15 15 16 16 16 15 15 16 15 16 16 16 17 17 17 17 17 17 17 17 17 17 18 18 19 19
16 16 17 17 17 16 16 16 16 15 15 15 15 15 15 15 15 15 15 16 16 16 17 17 17 16 16 16 16 17 18 18
15 16 16 16 16 15 15 15 15 15 15 14 14 14 13 14 14 14 14 14 15 16 16 17 17 17 16 16 16 16 16 17
15 15 15 15 15 14 14 14 14 14 14 14 14 14 13 13 13 13 14 14 14 14 14 15 16 16 16 16 16 16 16 15
15 15 15 15 15 14 14 14 13 13 12 12 12 12 12 12 12 12 12 12 13 13 13 14 14 14 16 16 16 16 15 15
15 15 14 14 14 14 13 13 12 12 12 11 11 11 11 11 11 11 11 10 10 11 12 12 13 13 13 15 15 15 15 15
15 14 13 13 13 12 12 11 10 10 10 10 10 10 10 10 10 10 10 9 10 10 10 10 11 12 12 12 14 16 15 15
14 14 13 13 12 12 12 11 10 9 9 9 9 8 7 7 8 8 9 9 8 9 10 9 10 10 11 12 11 14 12 14
14 13 13 12 12 11 10 9 8 8 8 8 8 7 6 6 6 7 7 7 8 9 9 10 10 9 10 10 12 11 10 11
13 12 12 11 11 10 10 9 9 9 9 8 7 6 5 5 5 6 6 7 7 8 9 9 9 9 9 9 10 10 9 9
13 12 11 11 10 10 9 9 8 8 6 6 6 6 5 5 5 6 6 6 7 8 7 8 8 8 8 8 9 9 9 9
12 12 11 10 10 10 9 9 7 6 5 5 6 5 5 6 6 6 6 6 6 6 6 7 7 7 7 7 7 9 8 9
11 10 9 9 9 9 8 8 8 6 6 6 6 6 6 6 5 5 5 5 6 6 6 6 6 6 6 6 6 7 8 8
Height
788 791 793 794 796 798 800 801 803 805 806 808 809 811 813 814 815 816 817 818 819 820 821 821 823 824 826 827 828 829 829 830
792 793 794 796 798 799 799 800 801 804 805 806 808 810 812 813 814 815 815 816 816 817 818 820 821 823 824 826 827 828 828 828
795 796 797 798 799 801 803 804 802 802 804 806 807 808 810 811 812 813 813 815 817 817 817 818 820 821 822 824 825 825 826 826
797 796 798 798 799 801 802 802 805 804 805 806 808 808 808 809 810 811 812 813 814 814 815 816 817 818 819 821 821 822 823 823
799 796 795 797 798 799 800 802 804 805 806 806 806 808 807 808 808 809 809 810 810 811 811 811 812 813 814 816 817 818 817 818
801 801 799 798 799 800 801 806 803 806 807 807 808 807 807 806 805 805 805 804 805 806 807 807 807 807 807 808 810 812 813 813
800 801 801 801 799 801 802 802 803 806 805 804 805 804 805 804 803 803 802 802 801 802 801 801 801 802 802 804 804 805 806 806
799 800 801 802 802 801 805 807 809 808 806 807 807 806 804 803 800 801 799 799 797 797 796 796 796 795 794 796 798 800 802 802
801 801 802 800 799 802 807 808 809 810 809 810 807 808 806 804 803 801 799 797 796 794 792 791 790 790 789 790 792 792 793 795
803 805 806 806 805 806 806 807 807 807 807 808 808 806 807 806 802 801 799 796 794 792 790 788 785 784 784 782 782 783 784 784
802 805 808 811 810 808 809 810 809 809 809 808 806 805 805 803 802 800 798 795 792 789 786 785 781 778 776 776 774 773 774 777
801 803 806 808 809 809 808 808 808 809 808 806 805 805 804 802 799 797 794 791 789 787 784 782 781 779 771 766 766 764 764 763
801 803 807 808 805 805 805 806 806 805 805 805 804 802 800 798 796 793 791 789 788 785 782 779 776 775 771 766 755 753 753 753
801 804 808 808 807 805 805 804 806 807 805 803 801 799 798 797 795 791 788 785 783 782 779 777 775 774 774 771 758 751 746 746
802 803 806 808 807 805 804 803 804 802 799 797 796 794 793 791 790 789 786 783 781 780 778 776 773 772 774 775 766 754 756 745
803 804 806 806 807 806 804 804 803 799 796 793 790 789 787 786 785 784 782 780 778 776 775 774 772 770 771 770 767 765 763 750
802 804 805 806 806 805 804 803 798 794 792 789 787 785 783 782 781 780 777 776 774 773 772 770 769 768 766 766 764 760 759 760
800 802 803 804 803 803 802 800 795 791 789 787 786 784 781 778 777 776 775 774 772 771 769 767 766 764 763 761 759 760 753 751
798 799 801 802 802 800 799 795 792 790 789 786 783 783 782 779 776 774 772 770 769 767 765 763 761 761 759 756 753 747 748 743
797 798 800 799 798 797 794 791 789 789 788 787 785 784 782 780 777 774 772 770 766 764 762 759 758 756 752 750 746 743 741 736
Wind_Speed
16 14 13 14 15 16 15 14 14 13 13 14 15 15 15 15 15 15 15 14 14 14 13 13 13 13 15 15 15 15 11 13
12 11 13 14 14 14 14 14 13 13 13 14 15 16 16 17 18 18 18 18 18 17 17 16 15 14 16 17 18 17 15 15
5 7 8 11 14 13 13 13 13 13 13 13 14 16 18 19 21 21 22 21 20 20 20 18 18 17 18 20 20 21 18 18
4 6 4 6 9 10 12 12 13 12 12 12 14 15 18 20 20 22 23 24 24 23 23 21 21 22 21 22 24 25 24 23
18 10 5 0 4 7 11 11 12 11 12 12 12 15 16 17 20 22 24 25 27 27 27 26 27 27 28 27 28 28 29 29
21 19 14 12 7 4 5 8 10 10 11 12 14 16 16 16 20 22 25 27 29 30 32 33 33 33 34 32 31 32 34 34
23 21 23 26 25 26 22 20 16 15 9 11 8 13 15 18 18 21 23 27 28 31 33 36 38 39 38 38 36 35 37 38
25 25 23 24 27 26 25 23 21 23 22 22 21 18 20 18 15 15 14 18 24 29 32 35 35 39 39 40 41 38 38 40
26 24 22 23 24 24 23 21 19 19 20 17 21 20 19 19 19 19 20 20 19 22 30 33 34 32 33 36 40 42 42 42
25 22 22 22 22 22 22 20 19 19 19 18 20 22 22 21 20 20 21 21 20 18 20 27 32 33 32 36 37 38 44 46
25 22 21 20 20 21 22 23 22 21 20 20 21 21 22 23 23 23 24 25 24 23 23 22 25 28 31 36 37 39 41 39
22 20 17 16 17 19 20 20 20 19 21 21 22 25 25 25 25 25 25 25 24 24 24 26 25 25 30 34 36 38 38 41
20 16 14 13 17 21 24 22 19 18 20 22 26 29 28 25 23 23 24 25 25 25 25 25 26 25 26 26 31 35 40 40
15 14 12 14 16 17 17 15 14 16 22 24 28 30 29 25 23 25 26 26 26 26 27 25 20 20 12 18 6 15 26 37
11 11 11 11 12 15 17 15 17 16 26 30 31 30 25 20 24 25 23 25 25 24 24 22 20 20 17 7 3 3 15 21
10 8 7 7 10 12 13 13 11 20 27 30 32 30 24 18 20 24 22 21 21 18 18 17 17 16 21 13 16 17 5 8
10 7 6 4 5 9 12 15 19 24 28 30 32 30 24 19 21 22 19 19 16 14 17 20 20 19 14 16 20 16 15 9
8 7 6 3 4 8 12 17 22 24 24 24 27 27 26 24 22 17 18 19 15 16 20 18 19 21 21 22 16 16 7 7
7 4 5 3 2 7 12 17 19 17 17 19 23 25 26 23 20 19 20 19 17 15 16 18 18 19 22 22 21 20 27 20
11 12 10 4 3 9 15 20 19 15 14 15 15 19 22 22 20 17 18 17 18 17 18 18 18 20 21 23 24 25 26 25
Wind_Direction
183 186 193 202 207 211 214 220 224 227 228 228 229 232 234 231 229 227 228 227 228 227 228 222 216 204 207 207 202 199 208 197
182 193 207 216 220 222 223 224 227 234 236 236 235 235 237 239 237 236 236 235 234 233 235 233 230 222 213 213 213 210 209 209
179 204 226 232 229 229 234 240 236 235 238 239 241 238 237 237 240 241 241 242 243 243 243 243 241 237 227 219 218 218 212 208
161 203 229 246 236 237 240 238 249 248 251 255 256 248 244 242 245 247 246 246 247 248 249 248 248 245 238 228 224 223 219 213
66 94 98 251 242 243 243 250 253 264 262 261 265 266 261 254 256 253 251 249 249 248 247 246 245 244 243 236 230 227 226 223
70 71 70 56 61 269 262 271 290 296 279 272 271 270 263 264 261 263 260 255 252 252 250 251 249 246 247 244 237 232 231 229
78 76 73 69 69 69 79 71 68 68 53 38 342 289 280 280 283 279 276 274 268 262 257 254 252 251 249 248 244 238 236 233
88 83 80 75 68 60 59 57 54 54 50 39 37 30 22 15 360 349 336 312 295 278 263 260 254 253 247 247 250 248 243 241
87 87 84 83 81 78 72 66 61 55 49 41 34 28 21 18 12 0 352 338 321 308 270 262 259 254 250 249 250 252 249 246
90 86 79 76 75 72 72 69 66 56 45 34 25 19 12 2 357 350 346 342 343 326 307 276 259 255 250 253 253 250 249 247
89 82 70 65 63 63 57 50 44 35 26 18 11 3 356 351 347 341 338 337 335 334 328 314 283 259 252 252 248 246 247 244
94 82 72 66 60 48 41 31 23 18 14 12 6 2 355 349 344 340 339 336 332 324 321 322 321 311 268 249 249 248 243 237
94 86 72 53 41 31 20 17 19 17 13 5 0 356 353 348 344 339 339 341 336 331 317 313 318 325 318 311 258 245 242 236
92 80 66 50 36 35 25 27 24 5 360 354 350 347 343 341 340 335 336 332 331 337 335 316 310 323 318 306 303 266 246 243
92 78 60 38 32 17 20 22 5 346 353 347 344 342 339 332 331 335 330 327 326 326 334 331 310 314 316 286 319 304 340 282
113 87 61 46 20 18 26 17 4 349 347 344 341 339 336 323 323 331 330 326 323 322 324 320 327 317 315 300 266 276 295 309
133 116 106 81 42 20 10 3 357 350 348 346 347 346 338 326 326 331 336 338 331 326 327 327 323 305 308 316 301 263 244 239
148 139 108 88 22 7 0 357 354 352 355 1 359 357 351 345 342 350 348 348 339 316 319 320 318 315 307 301 293 293 253 220
163 164 165 189 316 347 350 354 353 356 359 359 5 3 1 1 359 353 346 344 338 332 321 318 319 316 313 306 296 287 290 266
186 183 184 191 340 351 353 351 349 351 359 3 6 358 352 352 347 339 338 339 341 337 330 327 324 319 314 312 299 294 278 282